Tracking 22455 objects as of 9-Mar-2021
HD Live streaming from Space Station
objects crossing your sky now

CZ-4 DEB

Track CZ-4 DEB now!
10-day predictions


NORAD ID: 20888
Int'l Code: 1990-081AY
Perigee: 692.1 km
Apogee: 1,002.6 km
Inclination: 99.1 °
Period: 101.7 minutes
Semi major axis: 7218 km
RCS: 0.1391 m2 (medium)
Launch date: September 3, 1990
Source: People's Republic of China (PRC)
Launch site: Taiyaun Space Center, China (TSC)

Note: This is SATELLITE DEBRIS
aabbcc
Your satellite tracking list
Your tracking list is empty




NASA's NSSDC Master Catalog

Two Line Element Set (TLE):
1 20888U 90081AY  21067.55490306  .00001304  00000-0  55232-3 0  9990
2 20888  99.0988 186.1125 0215143 329.6250  29.2598 14.15618270553449
Source of the keplerian elements: AFSPC